This is the latest recevied weather packets stored in our database for station/object KR4ELZ. If no packets are shown the sender has not sent any weather packets the latest 10 day(s).
| Time | Temp. | Humidity | Pressure | Rain* | Wind** | Luminosity | Snow |
|---|---|---|---|---|---|---|---|
| 1777216899 | 26.67° C | 61% | 1013.1 hPa | 0 mm | - | 508 W/m² | - |
| 1777216596 | 26.67° C | 61% | 1013 hPa | 0 mm | - | 497 W/m² | - |
| 1777216292 | 26.67° C | 67% | 1013 hPa | 0 mm | - | 486 W/m² | - |
| 1777215991 | 25.56° C | 67% | 1013.1 hPa | 0 mm | - | 477 W/m² | - |
| 1777215687 | 25° C | 71% | 1012.9 hPa | 0 mm | - | 480 W/m² | - |
| 1777215387 | 24.44° C | 70% | 1012.9 hPa | 0 mm | - | 464 W/m² | - |
| 1777215084 | 23.89° C | 71% | 1013.1 hPa | 0 mm | - | 474 W/m² | - |
| 1777214779 | 22.78° C | 78% | 1013 hPa | 0 mm | - | 512 W/m² | - |
| 1777214479 | 22.22° C | 80% | 1012.8 hPa | 0 mm | - | 177 W/m² | - |
| 1777214174 | 22.22° C | 79% | 1012.9 hPa | 0 mm | - | 163 W/m² | - |
| 1777213869 | 21.67° C | 81% | 1013 hPa | 0 mm | - | 146 W/m² | - |
| 1777213569 | 21.67° C | 82% | 1013.1 hPa | 0 mm | - | 123 W/m² | - |
| 1777213266 | 21.11° C | 83% | 1012.9 hPa | 0 mm | - | 112 W/m² | - |
| 1777212962 | 21.11° C | 83% | 1013 hPa | 0 mm | - | 101 W/m² | - |
| 1777212661 | 21.11° C | 84% | 1013 hPa | 0 mm | - | 110 W/m² | - |
| 1777212358 | 20.56° C | 85% | 1012.9 hPa | 0 mm | - | 104 W/m² | - |
| 1777212055 | 20.56° C | 87% | 1012.8 hPa | 0 mm | - | 90 W/m² | - |
| 1777211750 | 20.56° C | 87% | 1012.4 hPa | 0 mm | - | 82 W/m² | - |
| 1777211449 | 20.56° C | 88% | 1012.8 hPa | 0 mm | - | 80 W/m² | - |
| 1777211145 | 20.56° C | 87% | 1012.9 hPa | 0 mm | - | 73 W/m² | - |
| 1777210842 | 20° C | 88% | 1013 hPa | 0 mm | - | 73 W/m² | - |
| 1777210540 | 20° C | 88% | 1012.9 hPa | 0 mm | - | 73 W/m² | - |
| 1777210238 | 20° C | 89% | 1013 hPa | 0 mm | - | 68 W/m² | - |
| 1777209933 | 19.44° C | 89% | 1012.9 hPa | 0 mm | - | 71 W/m² | - |
| 1777209629 | 19.44° C | 89% | 1013 hPa | 0 mm | - | 74 W/m² | - |
* Rain latest hour (hover to see other rain measurements)
** Current wind speed in m/s (hover to see current wind gust speed)